STARLINK-11652, 63315

Orbit data source: Space-Track

STARLINK-11652, 63315 is a payload satellite owned by SpaceX/Seattle (US) in LEO that was launched on Tue, 18 Mar 2025 UTC via an FALCON 9 launch vehicle from the Air Force Eastern Test Range (AFETR). Payload-class satellites include a variety of spacecraft equipped with specific instruments for various scientific and technological missions. These include communications satellites like Starlink; space stations such as the ISS; scientific satellites like the Hubble; Earth observation satellites from companies like Planet Labs, Umbra, and HawkEye 360; GPS; miniature CubeSats for education and research; and military/defense satellites.

Loading next visibility...
Identifier
63315, 2025-057J
Orbit
LEO
Country
Flag of USUS
Related business
Manufacturer
SpaceX/Seattle
Mission
Operational Commercial Communications
Bus & Motor
STARLINK V2MD, Unknown motor
Mass
960 kg wet, ~910 kg dry
Launch date (UTC)
2025-03-18 (11 months ago)
Launch vehicle
FALCON 9
Launch site
Air Force Eastern Test Range (AFETR)
Object type
Payload
Rocket body
Debris
Shape & HBR
Box + 2 Pan, 18.1 m
Radar Cross Section
36.964 m², Large (>1 m²)

Expand to show TLE details & history
Last TLE update: 7 hours ago

TLE from 7 hours ago
0 STARLINK-11652
1 63315U 25057J   26034.58183798  .00225617  00000-0  17117-2 0  9993
2 63315  42.9995 110.0930 0001200 273.8348  86.2382 15.70878740 51844
Epoch: 2026-02-03T13:57Z
TLE epoch observation values (Epoch: 2026-02-03T13:57:50.801Z)
Latitude
-0.00005°
Longitude
126.87057°
Altitude
356.103 km
Speed
7.697 km/s
True Right ascension
07h 20m 22s
True Declination
0° 00' 00"
Sunlit
Object was in full shadow at epoch
Visualization orbit readout
Latitude
Unknown
Longitude
Unknown
Altitude
Unknown
Speed
Unknown
Apparent Right ascension
Unknown
Apparent Declination
Unknown
Sunlit
N/A
Visualization observer readout
Local Sidereal Time
22:38:58
Azimuth
Unknown
Elevation
Unknown
Doppler factor
Unknown
Orbital elements
Apogee altitude
359.174 km
Perigee altitude
357.558 km
Semi-major axis
6,736.503 km
Eccentricity
0.00012
Inclination
42.9995°
RAAN
110.093°
Arg. of periapsis
273.8348°
True anomaly
86.25192°
Mean anomaly
86.2382°
Eccentric anomaly
86.24506°
Mean motion
3.92547 °/min
Orbital period
91.71 mins
BSTAR
0.0017117
Loading maneuver chart data...
Computing Atmospheric mass density...
Loading historical data...
Loading historical data...
Loading historical data...
Loading historical data...
Loading historical data...
Loading historical data...
Loading historical data...

Documentation

Showing up to 5 results
|